QPF
0.00 0.00 0.00 0.00 0.00 0.00 0.00 0.00 0.00 0.00 0.00 0.01 0.04 0.07 0.12 0.11 0.06 0.05 0.03 0.03 0.02 0.01 0.01 0.01 0.01 0.01 0.01 0.01 0.00 0.00 0.00 0.00 0.00 0.00 0.00 0.00 0.00 0.00 0.00 0.00 0.00 0.00
0.00 0.00 0.00 0.00 0.00 0.00 0.00 0.00 0.00 0.00 0.00 0.00 0.01 0.04 0.07 0.16 0.22 0.25 0.14 0.05 0.03 0.02 0.01 0.01 0.01 0.01 0.01 0.01 0.01 0.01 0.00 0.00 0.00 0.00 0.00 0.00 0.00 0.00 0.00 0.00 0.00 0.00
0.00 0.00 0.00 0.00 0.00 0.00 0.00 0.00 0.00 0.00 0.00 0.00 0.02 0.04 0.05 0.06 0.12 0.18 0.13 0.24 0.19 0.08 0.12 0.03 0.01 0.01 0.01 0.01 0.01 0.01 0.00 0.00 0.00 0.00 0.00 0.00 0.00 0.00 0.00 0.00 0.00 0.00
0.00 0.00 0.00 0.00 0.00 0.00 0.00 0.00 0.02 0.03 0.02 0.02 0.03 0.03 0.05 0.05 0.18 0.25 0.18 0.25 0.45 0.20 0.27 0.25 0.19 0.32 0.37 0.26 0.27 0.18 0.03 0.02 0.01 0.00 0.01 0.00 0.00 0.00 0.00 0.00 0.00 0.00
0.00 0.00 0.00 0.00 0.00 0.00 0.00 0.00 0.00 0.00 0.01 0.01 0.01 0.03 0.05 0.07 0.18 0.58 0.53 0.35 0.32 0.40 0.31 0.35 0.21 0.15 0.13 0.18 0.20 0.18 0.12 0.15 0.12 0.12 0.13 0.08 0.07 0.06 0.01 0.00 0.00 0.00
0.00 0.00 0.00 0.00 0.01 0.00 0.00 0.00 0.00 0.00 0.00 0.00 0.00 0.01 0.02 0.16 0.11 0.24 0.47 0.47 0.34 0.36 0.36 0.29 0.37 0.25 0.25 0.20 0.22 0.31 0.17 0.16 0.05 0.10 0.09 0.08 0.08 0.04 0.01 0.00 0.00 0.00
0.00 0.00 0.00 0.00 0.00 0.00 0.00 0.00 0.00 0.00 0.00 0.01 0.00 0.00 0.01 0.02 0.05 0.10 0.22 0.26 0.43 0.56 0.65 0.45 0.34 0.45 0.35 0.34 0.42 0.19 0.07 0.13 0.06 0.11 0.07 0.01 0.01 0.01 0.00 0.00 0.00 0.00
0.00 0.00 0.00 0.01 0.03 0.01 0.01 0.00 0.00 0.00 0.01 0.01 0.01 0.00 0.01 0.02 0.04 0.04 0.11 0.11 0.11 0.11 0.16 0.27 0.49 0.28 0.15 0.15 0.14 0.09 0.09 0.08 0.07 0.01 0.01 0.01 0.01 0.00 0.00 0.00 0.00 0.00
0.00 0.00 0.00 0.00 0.00 0.02 0.01 0.00 0.01 0.01 0.05 0.04 0.12 0.21 0.02 0.03 0.03 0.05 0.22 0.32 0.23 0.18 0.22 0.19 0.37 0.35 0.29 0.24 0.10 0.08 0.06 0.05 0.02 0.01 0.01 0.01 0.00 0.00 0.00 0.00 0.00 0.00
0.00 0.00 0.00 0.00 0.00 0.00 0.04 0.06 0.06 0.13 0.14 0.08 0.27 0.20 0.02 0.03 0.03 0.04 0.18 0.23 0.40 0.30 0.28 0.35 0.56 0.45 0.53 0.30 0.24 0.12 0.07 0.05 0.03 0.02 0.01 0.01 0.00 0.00 0.00 0.00 0.00 0.00
0.00 0.00 0.00 0.00 0.00 0.00 0.01 0.01 0.03 0.08 0.01 0.05 0.21 0.27 0.05 0.02 0.17 0.16 0.22 0.50 0.47 0.27 0.29 0.29 0.25 0.21 0.32 0.31 0.19 0.16 0.12 0.06 0.06 0.02 0.02 0.01 0.00 0.00 0.00 0.00 0.00 0.00
0.00 0.00 0.00 0.00 0.00 0.01 0.01 0.01 0.08 0.01 0.01 0.08 0.00 0.10 0.11 0.02 0.01 0.03 0.07 0.19 0.12 0.04 0.06 0.11 0.13 0.15 0.17 0.20 0.22 0.26 0.31 0.27 0.18 0.17 0.04 0.01 0.01 0.00 0.00 0.00 0.00 0.00
0.00 0.00 0.00 0.00 0.01 0.01 0.01 0.01 0.02 0.04 0.00 0.00 0.01 0.00 0.00 0.00 0.01 0.01 0.02 0.07 0.23 0.12 0.17 0.07 0.08 0.14 0.16 0.29 0.51 0.41 0.33 0.32 0.25 0.31 0.18 0.13 0.03 0.01 0.00 0.00 0.00 0.00
0.00 0.00 0.00 0.00 0.00 0.01 0.01 0.01 0.00 0.02 0.00 0.00 0.02 0.02 0.00 0.00 0.00 0.00 0.01 0.02 0.03 0.04 0.06 0.10 0.12 0.40 0.26 0.17 0.23 0.26 0.29 0.24 0.33 0.26 0.11 0.15 0.08 0.05 0.01 0.01 0.00 0.00
0.00 0.00 0.00 0.00 0.01 0.02 0.05 0.01 0.01 0.00 0.00 0.00 0.00 0.01 0.00 0.01 0.01 0.01 0.00 0.01 0.01 0.02 0.04 0.17 0.56 0.39 0.28 0.14 0.13 0.09 0.12 0.10 0.10 0.11 0.08 0.11 0.11 0.14 0.05 0.03 0.01 0.00
0.00 0.00 0.00 0.00 0.00 0.02 0.03 0.03 0.02 0.00 0.00 0.00 0.00 0.00 0.01 0.01 0.01 0.02 0.02 0.00 0.00 0.01 0.02 0.21 0.35 0.38 0.74 0.49 0.22 0.14 0.07 0.07 0.08 0.09 0.08 0.07 0.11 0.12 0.18 0.11 0.07 0.03
0.00 0.00 0.00 0.00 0.00 0.00 0.04 0.01 0.01 0.00 0.00 0.00 0.00 0.00 0.00 0.01 0.03 0.08 0.06 0.05 0.05 0.10 0.13 0.32 0.36 0.45 0.56 0.45 0.74 0.75 0.54 0.35 0.31 0.29 0.14 0.09 0.13 0.12 0.13 0.10 0.12 0.14
0.00 0.00 0.00 0.00 0.00 0.00 0.00 0.02 0.01 0.00 0.00 0.00 0.00 0.00 0.00 0.01 0.01 0.01 0.02 0.06 0.11 0.18 0.39 0.70 0.71 0.42 0.35 0.68 1.00 0.95 0.82 0.85 0.54 0.41 0.32 0.28 0.25 0.20 0.18 0.12 0.11 0.14
0.00 0.00 0.00 0.00 0.00 0.00 0.00 0.00 0.04 0.01 0.00 0.00 0.00 0.00 0.00 0.01 0.00 0.02 0.04 0.04 0.06 0.18 0.55 0.81 0.87 0.79 0.43 0.30 0.35 0.70 0.62 0.36 0.36 0.49 0.80 0.67 0.43 0.35 0.34 0.21 0.14 0.21
0.00 0.00 0.00 0.00 0.00 0.00 0.00 0.00 0.01 0.07 0.02 0.01 0.00 0.00 0.01 0.01 0.01 0.01 0.03 0.05 0.06 0.04 0.10 0.50 0.56 0.97 0.68 0.63 0.60 0.48 0.73 0.55 0.57 0.49 0.47 0.45 0.41 0.36 0.27 0.41 0.51 0.56
0.00 0.00 0.00 0.00 0.00 0.00 0.00 0.00 0.00 0.01 0.01 0.05 0.04 0.04 0.02 0.01 0.02 0.04 0.05 0.06 0.07 0.08 0.07 0.17 0.37 0.41 0.79 0.38 0.26 0.17 0.18 0.22 0.31 0.32 0.42 0.57 0.54 0.62 0.65 0.51 0.43 0.28
0.00 0.00 0.00 0.00 0.00 0.00 0.00 0.00 0.00 0.00 0.00 0.09 0.08 0.14 0.25 0.02 0.01 0.02 0.04 0.03 0.05 0.07 0.10 0.05 0.07 0.07 0.03 0.15 0.44 0.43 0.09 0.12 0.16 0.21 0.31 0.46 0.42 0.49 0.37 0.36 0.41 0.36
0.00 0.00 0.00 0.00 0.00 0.00 0.00 0.00 0.00 0.00 0.00 0.00 0.02 0.02 0.09 0.22 0.26 0.38 0.03 0.06 0.11 0.08 0.05 0.05 0.04 0.09 0.04 0.01 0.10 0.62 0.71 0.59 0.66 1.11 0.82 0.53 0.54 0.57 0.49 0.47 0.46 0.40
0.00 0.00 0.00 0.00 0.00 0.00 0.00 0.00 0.00 0.00 0.00 0.00 0.01 0.01 0.01 0.02 0.06 0.12 0.09 0.06 0.06 0.05 0.23 0.06 0.09 0.12 0.14 0.02 0.01 0.16 0.33 0.40 0.44 0.43 0.33 0.40 0.38 0.23 0.24 0.35 0.36 0.47
0.01 0.00 0.00 0.00 0.00 0.00 0.00 0.00 0.00 0.00 0.00 0.00 0.00 0.02 0.03 0.03 0.10 0.10 0.04 0.04 0.13 0.07 0.12 0.16 0.08 0.03 0.01 0.01 0.05 0.08 0.53 0.56 0.42 0.46 0.32 0.30 0.28 0.22 0.22 0.17 0.08 0.11
0.01 0.01 0.01 0.01 0.00 0.00 0.00 0.00 0.00 0.00 0.00 0.00 0.00 0.01 0.01 0.01 0.02 0.02 0.02 0.06 0.22 0.04 0.12 0.31 0.02 0.01 0.02 0.00 0.00 0.03 0.10 0.60 0.69 0.38 0.15 0.09 0.21 0.17 0.16 0.16 0.15 0.13
MSLP
1013.14 1012.90 1012.66 1012.17 1011.73 1011.41 1011.22 1011.09 1010.93 1010.78 1010.58 1010.49 1010.58 1010.53 1010.58 1010.41 1010.38 1010.41 1010.46 1010.49 1010.53 1010.73 1010.85 1010.93 1010.97 1011.02 1011.02 1011.09 1011.22 1011.38 1011.53 1011.70 1011.90 1012.05 1012.29 1012.61 1012.97 1013.26 1013.58 1013.73 1013.93 1014.05
1012.85 1012.58 1012.34 1012.09 1011.70 1011.22 1010.93 1010.78 1010.61 1010.49 1010.29 1010.17 1010.05 1010.02 1009.93 1009.97 1009.90 1009.97 1010.09 1010.09 1010.14 1010.22 1010.26 1010.41 1010.41 1010.49 1010.61 1010.78 1010.90 1011.09 1011.22 1011.29 1011.46 1011.41 1011.85 1012.09 1012.34 1012.70 1012.90 1013.09 1013.34 1013.49
1012.61 1012.38 1012.14 1012.02 1011.78 1011.29 1010.85 1010.41 1010.26 1010.09 1009.97 1009.73 1009.61 1009.58 1009.53 1009.49 1009.49 1009.53 1009.61 1009.70 1009.73 1009.82 1009.85 1009.90 1009.97 1009.90 1009.97 1010.22 1010.46 1010.70 1010.78 1010.90 1011.02 1011.02 1011.26 1011.49 1011.70 1012.14 1012.29 1012.61 1012.85 1012.97
1012.34 1012.17 1012.02 1011.70 1011.41 1011.14 1010.78 1010.49 1010.09 1009.85 1009.66 1009.49 1009.34 1009.14 1009.02 1008.93 1008.97 1009.05 1009.17 1009.22 1009.34 1009.38 1009.41 1009.49 1009.53 1009.49 1009.49 1009.53 1009.82 1010.17 1010.22 1010.09 1009.93 1010.14 1010.61 1010.85 1011.17 1011.46 1011.78 1012.09 1012.26 1012.41
1012.17 1011.90 1011.70 1011.41 1011.09 1010.90 1010.73 1010.49 1010.14 1009.70 1009.38 1009.14 1008.85 1008.70 1008.61 1008.58 1008.58 1008.58 1008.70 1008.73 1008.78 1008.90 1009.05 1009.34 1009.34 1009.22 1009.09 1009.17 1009.29 1009.61 1009.70 1009.82 1009.78 1009.97 1010.41 1010.66 1010.82 1011.29 1011.38 1011.58 1011.73 1011.90
1011.97 1011.78 1011.49 1011.26 1010.97 1010.70 1010.41 1010.22 1009.93 1009.58 1009.05 1008.70 1008.46 1008.26 1008.17 1008.14 1008.14 1008.09 1008.17 1008.29 1008.34 1008.38 1008.49 1008.66 1008.82 1008.90 1008.85 1008.85 1008.90 1008.90 1009.09 1009.34 1009.34 1009.53 1009.97 1010.34 1010.38 1010.22 1010.41 1010.70 1010.97 1011.22
1011.82 1011.58 1011.34 1011.05 1010.70 1010.38 1010.09 1009.78 1009.53 1009.26 1008.78 1008.22 1007.90 1007.82 1007.73 1007.73 1007.70 1007.70 1007.70 1007.78 1007.82 1007.82 1007.85 1008.05 1008.26 1008.38 1008.22 1008.34 1008.78 1008.85 1008.73 1008.85 1009.05 1009.34 1009.58 1009.70 1009.93 1009.97 1009.66 1009.66 1010.02 1010.34
1011.61 1011.34 1011.09 1010.78 1010.41 1010.05 1009.78 1009.41 1009.05 1008.82 1008.41 1007.85 1007.58 1007.26 1007.22 1007.22 1007.22 1007.22 1007.22 1007.26 1007.29 1007.22 1007.29 1007.38 1007.53 1007.66 1007.70 1007.90 1008.41 1008.78 1008.46 1008.41 1008.58 1008.82 1009.05 1009.17 1009.53 1009.70 1009.38 1008.97 1009.02 1009.49
1011.49 1011.09 1010.73 1010.46 1010.17 1009.82 1009.46 1009.05 1008.73 1008.38 1007.97 1007.61 1007.17 1006.85 1006.70 1006.70 1006.70 1006.66 1006.70 1006.70 1006.73 1006.73 1006.73 1006.78 1006.85 1006.97 1007.05 1007.29 1007.53 1007.85 1007.90 1007.97 1007.97 1008.26 1008.49 1008.66 1008.93 1008.90 1008.82 1008.70 1008.73 1008.78
1011.29 1010.82 1010.49 1010.26 1009.97 1009.53 1009.14 1008.73 1008.41 1008.09 1007.58 1007.14 1006.73 1006.46 1006.29 1006.14 1006.09 1006.09 1006.14 1006.17 1006.22 1006.22 1006.22 1006.22 1006.26 1006.38 1006.46 1006.61 1006.78 1006.97 1007.14 1007.29 1007.34 1007.46 1007.49 1007.58 1007.78 1007.85 1007.93 1008.17 1008.26 1008.29
1011.05 1010.73 1010.34 1009.93 1009.58 1009.17 1008.78 1008.46 1008.14 1007.70 1007.22 1006.78 1006.38 1006.09 1005.85 1005.73 1005.66 1005.61 1005.70 1005.66 1005.66 1005.61 1005.61 1005.61 1005.66 1005.73 1005.85 1005.93 1006.05 1006.17 1006.38 1006.49 1006.61 1006.78 1006.85 1006.85 1006.90 1006.90 1007.02 1007.26 1007.49 1007.61
1010.82 1010.46 1010.09 1009.66 1009.26 1008.82 1008.46 1008.22 1007.82 1007.38 1006.93 1006.46 1006.02 1005.70 1005.46 1005.38 1005.38 1005.29 1005.17 1005.05 1004.93 1004.90 1004.90 1004.85 1004.90 1005.02 1005.14 1005.26 1005.41 1005.58 1005.66 1005.78 1005.85 1006.09 1006.22 1006.34 1006.41 1006.38 1006.46 1006.58 1006.73 1006.90
1010.53 1010.09 1009.73 1009.34 1008.90 1008.49 1008.09 1007.73 1007.34 1006.93 1006.58 1006.09 1005.58 1005.34 1005.22 1005.14 1005.05 1005.02 1004.70 1004.53 1004.38 1004.34 1004.34 1004.29 1004.34 1004.38 1004.53 1004.66 1004.82 1004.93 1005.05 1005.22 1005.38 1005.53 1005.70 1005.82 1005.82 1005.82 1005.82 1005.85 1005.93 1006.17
1010.17 1009.61 1009.26 1008.85 1008.41 1008.02 1007.70 1007.29 1006.90 1006.49 1006.05 1005.53 1005.22 1005.17 1005.09 1004.97 1004.85 1004.70 1004.46 1004.26 1004.05 1003.97 1003.85 1003.85 1003.90 1003.93 1003.97 1004.14 1004.26 1004.41 1004.53 1004.66 1004.78 1005.02 1005.26 1005.34 1005.22 1005.17 1005.17 1005.26 1005.34 1005.49
1009.66 1009.09 1008.78 1008.46 1008.09 1007.73 1007.38 1007.09 1006.70 1006.41 1006.09 1005.61 1005.22 1004.97 1004.73 1004.58 1004.38 1004.26 1004.14 1003.97 1003.82 1003.66 1003.53 1003.53 1003.58 1003.61 1003.58 1003.66 1003.90 1004.02 1004.09 1004.22 1004.26 1004.46 1004.70 1004.90 1004.90 1004.82 1004.78 1004.82 1004.90 1004.97
1009.53 1009.14 1008.78 1008.49 1008.17 1007.73 1007.29 1006.93 1006.66 1006.49 1006.29 1005.78 1005.26 1004.90 1004.61 1004.34 1004.14 1003.93 1003.73 1003.58 1003.46 1003.29 1003.17 1003.09 1003.09 1003.05 1003.05 1003.22 1003.38 1003.53 1003.73 1003.85 1003.90 1003.97 1004.14 1004.29 1004.41 1004.46 1004.49 1004.53 1004.53 1004.58
1009.70 1009.29 1008.97 1008.66 1008.29 1007.82 1007.29 1007.02 1006.78 1006.58 1006.38 1006.02 1005.53 1005.05 1004.66 1004.29 1004.02 1003.78 1003.46 1003.17 1002.97 1002.85 1002.73 1002.66 1002.61 1002.58 1002.66 1002.85 1002.97 1003.17 1003.29 1003.41 1003.49 1003.61 1003.66 1003.82 1003.93 1003.97 1004.05 1004.22 1004.29 1004.38
1009.85 1009.41 1009.05 1008.70 1008.29 1007.85 1007.49 1007.09 1006.85 1006.70 1006.53 1006.26 1005.85 1005.41 1005.02 1004.61 1004.14 1003.66 1003.29 1002.97 1002.73 1002.53 1002.34 1002.14 1002.05 1002.09 1002.26 1002.46 1002.58 1002.73 1002.90 1002.93 1003.02 1003.17 1003.29 1003.38 1003.46 1003.46 1003.49 1003.66 1003.85 1004.02
1009.85 1009.46 1009.05 1008.70 1008.34 1007.97 1007.49 1007.05 1006.90 1006.78 1006.53 1006.29 1005.97 1005.61 1005.26 1004.90 1004.41 1003.70 1003.14 1002.78 1002.53 1002.26 1001.93 1001.66 1001.66 1001.70 1001.82 1001.93 1001.97 1002.17 1002.41 1002.58 1002.46 1002.46 1002.61 1002.73 1002.90 1003.02 1003.05 1003.09 1003.26 1003.46
1009.85 1009.41 1009.02 1008.61 1008.22 1007.90 1007.53 1007.22 1007.02 1006.93 1006.73 1006.49 1006.14 1005.70 1005.38 1004.97 1004.61 1004.22 1003.41 1002.70 1002.26 1001.93 1001.66 1001.34 1001.17 1001.22 1001.49 1001.61 1001.58 1001.53 1001.70 1002.05 1001.97 1001.97 1001.93 1002.02 1002.14 1002.29 1002.49 1002.61 1002.70 1002.93
1009.85 1009.34 1008.85 1008.49 1008.14 1007.85 1007.58 1007.34 1007.17 1006.97 1006.73 1006.49 1006.22 1005.90 1005.49 1005.09 1004.82 1004.41 1003.90 1003.17 1002.46 1001.93 1001.61 1001.22 1000.85 1000.82 1001.05 1001.14 1001.29 1001.61 1001.61 1001.58 1001.38 1001.34 1001.34 1001.29 1001.34 1001.46 1001.66 1001.93 1002.14 1002.34
1009.85 1009.38 1008.82 1008.38 1008.05 1007.82 1007.58 1007.34 1007.14 1006.97 1006.78 1006.41 1006.05 1005.70 1005.41 1005.09 1004.73 1004.46 1004.02 1003.46 1002.70 1001.93 1001.41 1001.05 1000.61 1000.46 1000.58 1000.73 1000.73 1000.70 1001.14 1001.38 1000.90 1000.82 1000.85 1000.82 1000.85 1000.90 1001.14 1001.34 1001.49 1001.70
1009.85 1009.46 1009.05 1008.58 1008.17 1007.82 1007.58 1007.38 1007.14 1006.82 1006.61 1006.38 1006.02 1005.61 1005.38 1005.05 1004.70 1004.29 1003.90 1003.46 1002.78 1001.97 1001.38 1000.82 1000.46 1000.17 1000.09 1000.14 1000.38 1000.41 1000.70 1000.93 1000.85 1000.61 1000.73 1000.85 1000.78 1000.73 1000.78 1000.93 1001.09 1001.22
1009.78 1009.49 1009.29 1009.02 1008.66 1008.22 1007.73 1007.29 1006.97 1006.70 1006.46 1006.14 1005.93 1005.58 1005.22 1004.90 1004.49 1003.93 1003.49 1003.17 1002.78 1002.02 1001.22 1000.78 1000.22 999.82 999.78 999.73 999.93 1000.02 1000.26 1000.29 1000.46 1000.58 1000.78 1000.66 1000.61 1000.58 1000.61 1000.78 1000.82 1000.82
1009.90 1009.70 1009.49 1009.17 1008.78 1008.38 1007.90 1007.41 1006.97 1006.53 1006.17 1005.93 1005.66 1005.38 1005.02 1004.61 1004.22 1003.78 1003.22 1002.73 1002.41 1001.97 1001.17 1000.61 1000.02 999.61 999.53 999.49 999.46 999.66 999.85 999.85 999.90 1000.05 1000.26 1000.26 1000.38 1000.58 1000.82 1000.97 1000.93 1000.82
1010.02 1009.82 1009.58 1009.26 1008.85 1008.38 1007.90 1007.46 1006.90 1006.41 1006.05 1005.73 1005.38 1005.09 1004.73 1004.34 1003.97 1003.58 1003.02 1002.41 1002.02 1001.66 1001.05 1000.38 999.85 999.34 999.14 999.14 999.17 999.66 999.93 999.70 999.66 999.78 999.97 1000.09 1000.14 1000.26 1000.49 1000.53 1000.70 1000.78
Thickness
5590 5593 5598 5604 5610 5616 5621 5625 5628 5633 5637 5641 5644 5647 5650 5653 5656 5657 5659 5661 5662 5663 5665 5666 5667 5670 5672 5674 5675 5676 5677 5678 5678 5679 5678 5677 5677 5677 5676 5676 5676 5676
5586 5589 5593 5597 5604 5610 5616 5620 5624 5628 5633 5637 5641 5644 5648 5651 5654 5656 5657 5660 5662 5662 5664 5664 5666 5669 5670 5672 5673 5674 5675 5676 5677 5678 5678 5678 5678 5677 5677 5677 5676 5676
5583 5585 5588 5591 5596 5603 5609 5615 5620 5625 5629 5633 5637 5641 5645 5649 5652 5654 5655 5657 5659 5661 5663 5664 5665 5668 5670 5670 5670 5671 5673 5676 5678 5679 5678 5678 5678 5676 5676 5675 5674 5675
5579 5581 5583 5586 5591 5597 5603 5609 5614 5619 5623 5628 5633 5637 5642 5646 5650 5651 5652 5655 5657 5659 5661 5662 5664 5666 5669 5669 5668 5669 5674 5677 5679 5679 5677 5677 5677 5675 5674 5674 5674 5676
5575 5577 5580 5583 5587 5592 5596 5602 5608 5613 5619 5624 5629 5634 5639 5643 5646 5649 5651 5653 5655 5657 5658 5660 5660 5663 5666 5667 5667 5669 5673 5675 5677 5677 5674 5675 5676 5675 5674 5673 5673 5675
5571 5573 5576 5579 5583 5586 5590 5596 5601 5607 5614 5620 5625 5631 5635 5639 5643 5647 5649 5651 5653 5654 5657 5657 5658 5661 5663 5665 5666 5669 5671 5672 5675 5674 5671 5673 5676 5678 5680 5677 5676 5676
5566 5568 5572 5575 5579 5583 5587 5592 5596 5601 5609 5616 5622 5627 5632 5635 5639 5642 5646 5649 5651 5653 5655 5656 5657 5659 5662 5663 5663 5664 5667 5670 5673 5671 5670 5672 5672 5675 5681 5684 5682 5680
5562 5565 5568 5571 5575 5579 5583 5588 5592 5597 5603 5610 5618 5624 5628 5631 5635 5638 5642 5646 5649 5651 5654 5655 5657 5659 5661 5662 5660 5660 5663 5666 5669 5668 5669 5671 5669 5670 5678 5684 5685 5685
5558 5561 5565 5568 5572 5576 5580 5584 5588 5593 5598 5606 5613 5620 5625 5628 5632 5635 5639 5643 5646 5649 5652 5654 5657 5659 5661 5661 5661 5660 5662 5664 5667 5668 5669 5670 5669 5671 5677 5680 5683 5686
5555 5558 5561 5564 5567 5571 5576 5580 5585 5590 5595 5601 5608 5615 5620 5625 5629 5632 5635 5639 5642 5646 5649 5652 5655 5658 5660 5662 5663 5663 5664 5665 5668 5669 5671 5672 5674 5676 5679 5680 5681 5685
5551 5554 5557 5561 5564 5568 5573 5576 5581 5587 5592 5598 5604 5610 5614 5619 5624 5628 5631 5635 5639 5643 5646 5650 5653 5656 5659 5662 5664 5665 5665 5667 5668 5670 5671 5674 5677 5680 5681 5681 5682 5685
5548 5551 5554 5558 5562 5566 5570 5573 5578 5584 5589 5594 5599 5604 5608 5613 5617 5622 5626 5632 5637 5640 5643 5647 5651 5654 5657 5660 5662 5664 5665 5666 5667 5668 5669 5671 5674 5678 5680 5681 5683 5686
5544 5548 5551 5555 5559 5563 5567 5571 5576 5580 5585 5591 5596 5599 5602 5606 5610 5614 5621 5627 5632 5636 5640 5644 5648 5651 5654 5657 5660 5661 5663 5664 5665 5666 5667 5669 5672 5676 5679 5681 5683 5685
5541 5545 5548 5552 5555 5560 5563 5567 5572 5577 5582 5587 5591 5594 5596 5600 5603 5608 5613 5620 5625 5630 5635 5639 5642 5646 5650 5653 5656 5658 5659 5660 5663 5664 5665 5667 5671 5675 5678 5679 5681 5683
5540 5543 5546 5548 5551 5555 5558 5562 5567 5571 5575 5580 5584 5587 5592 5595 5599 5602 5607 5612 5618 5624 5629 5633 5636 5641 5646 5650 5652 5654 5655 5656 5660 5663 5664 5665 5668 5672 5674 5676 5678 5680
5537 5539 5541 5543 5545 5549 5553 5557 5560 5563 5566 5571 5576 5581 5585 5590 5594 5598 5602 5607 5611 5617 5622 5627 5632 5637 5643 5646 5648 5650 5650 5652 5655 5659 5662 5663 5665 5668 5669 5672 5674 5676
5531 5533 5535 5537 5539 5543 5547 5550 5553 5555 5558 5562 5568 5573 5577 5582 5587 5592 5597 5601 5605 5610 5616 5622 5627 5632 5637 5640 5643 5645 5646 5648 5652 5655 5658 5660 5662 5665 5667 5668 5669 5670
5525 5526 5528 5530 5533 5537 5540 5544 5546 5547 5549 5553 5557 5562 5566 5571 5577 5583 5589 5594 5598 5604 5610 5617 5622 5627 5632 5635 5638 5640 5641 5644 5649 5652 5654 5656 5659 5663 5664 5666 5666 5666
5520 5521 5523 5525 5528 5530 5534 5537 5539 5539 5541 5543 5547 5551 5555 5559 5565 5573 5580 5586 5591 5596 5604 5611 5617 5622 5627 5631 5635 5637 5639 5641 5646 5650 5652 5655 5657 5659 5661 5663 5663 5662
5515 5517 5519 5521 5523 5525 5527 5530 5531 5531 5531 5532 5536 5540 5545 5549 5553 5559 5567 5576 5583 5589 5596 5605 5611 5616 5621 5625 5629 5632 5636 5638 5643 5648 5653 5655 5657 5658 5659 5660 5661 5660
5510 5512 5514 5516 5518 5518 5520 5522 5522 5522 5522 5523 5526 5529 5534 5538 5542 5546 5553 5562 5571 5579 5587 5596 5605 5611 5616 5619 5623 5627 5630 5635 5641 5647 5651 5653 5656 5658 5659 5660 5660 5659
5505 5507 5509 5510 5511 5511 5512 5513 5513 5513 5513 5515 5517 5521 5525 5529 5533 5537 5542 5550 5561 5570 5578 5588 5598 5605 5609 5614 5619 5625 5627 5630 5638 5644 5646 5650 5653 5656 5658 5659 5660 5659
5501 5502 5502 5503 5504 5504 5505 5505 5505 5505 5506 5508 5511 5515 5518 5522 5526 5531 5536 5542 5551 5561 5570 5580 5590 5598 5604 5610 5616 5620 5622 5625 5632 5638 5640 5642 5647 5652 5655 5657 5658 5659
5496 5496 5495 5494 5495 5496 5497 5498 5499 5499 5500 5502 5506 5510 5513 5517 5521 5527 5532 5538 5544 5554 5564 5573 5584 5592 5599 5606 5612 5616 5619 5622 5627 5632 5634 5636 5640 5645 5649 5651 5653 5655
5491 5489 5489 5488 5489 5489 5490 5492 5493 5494 5496 5498 5501 5504 5508 5513 5517 5523 5529 5536 5542 5549 5559 5568 5579 5588 5595 5601 5607 5611 5615 5620 5625 5628 5631 5633 5636 5638 5641 5643 5645 5649
5485 5484 5484 5484 5485 5485 5486 5487 5487 5489 5490 5492 5496 5500 5505 5510 5514 5519 5526 5534 5540 5547 5556 5566 5576 5585 5592 5599 5603 5605 5608 5614 5620 5624 5627 5629 5631 5634 5636 5638 5641 5644